Regional Weather Roundup
Issued by NWS Newport/Morehead, NC

Current Version | Previous Version | Text Only | Print | Product List | Glossary On
Versions: 1 2 3 4 5 6 7 8 9 10 11 12 13 14 15 16 17 18 19 20 21 22 23 24 25 26 27 28 29 30 31 32 33 34 35 36 37 38 39 40 41 42 43 44 45 46 47 48 49 50
000 ASUS42 KMHX 231922 RWRMHX WEATHER ROUNDUP FOR EASTERN NORTH CAROLINA NATIONAL WEATHER SERVICE NEWPORT/MOREHEAD CITY NC 300 PM EDT WED JUL 23 2014 NOTE: "FAIR" INDICATES FEW OR NO CLOUDS BELOW 12,000 FEET WITH NO SIGNIFICANT WEATHER AND/OR OBSTRUCTIONS TO VISIBILITY NCZ015>017-031-032-045>047-102-103-232000- NORTH COAST CITY SKY/WX TMP DP RH WIND PRES REMARKS EDENTON MOSUNNY 88 73 62 SW7 29.97F ELIZABETH CITY MOSUNNY 86 74 67 S8 29.96F KITTY HAWK MOCLDY 85 73 67 S5 29.97S MANTEO NOT AVBL $$ NCZ045>047-081-094-103-104-232000- CENTRAL COAST CITY SKY/WX TMP DP RH WIND PRES REMARKS FRISCO MOSUNNY 84 76 76 SW10 30.01F SWANQUARTER N/A 86 N/A N/A S9G16 29.97S $$ NCZ095-097-098-100-101-232000- SOUTHERN COAST CITY SKY/WX TMP DP RH WIND PRES REMARKS BEAUFORT PTSUNNY 82 75 79 S12 30.02F CEDAR ISLAND N/A 81 N/A N/A S7G16 30.06S JACKSONVILLE MOSUNNY 86 77 74 S10 30.01S NEWPORT NOT AVBL PINEY ISLAND PTCLDY 81 76 84 S7 30.01F WILMINGTON MOSUNNY 84 77 79 S7 30.02S $$ NCZ011>013-027>030-043-044-078>080-089-090>093-098-232000- COASTAL PLAIN CITY SKY/WX TMP DP RH WIND PRES REMARKS AHOSKIE SUNNY 88 73 61 S5 29.96F CLINTON MOSUNNY 86 78 75 S3 30.00F ELIZABETHTOWN PTSUNNY 90 71 53 CALM 30.00F GOLDSBORO PTSUNNY 89 76 65 SW6 29.96F GREENVILLE PTSUNNY 90 73 58 SW5 30.00F HAVELOCK PTSUNNY 81 75 82 S9 30.02F KENANSVILLE MOSUNNY 89 72 57 W5 30.00F KINSTON MOSUNNY 90 72 55 S8 29.99F NEW BERN LGT RAIN 85 77 77 S6 30.01S RICHLANDS MOSUNNY 91 72 52 W7 29.99F ROANOKE RAPIDS NOT AVBL ROCKY MOUNT MOSUNNY 90 72 55 S9 29.97F WASHINGTON MOSUNNY 87 73 63 CALM 29.98F WHITEVILLE MOSUNNY 89 73 57 S5 30.00F $$ AMZ130-135-150-152-154-156-158-170-250-252-270-ANZ085-086-088-633-658-670-232000- MARINE OBSERVATIONS STATION/POSITION TIME TEMP WIND PRES WAVE SWELL AIR SEA DIR/SP/G HT/PER HT/PER (UTC) (F) (DEG/KT/KT) (MB) (FT/S) (FT/S) CHESAPEAKE LIGHT NOT AVBL BUOY 44014 1900 77 79 210/ 8/ 8 1014.9 3/ 5 2/ 5 DUCK 1900 84 74 230/ 8/ 11 1014.1 2E DUCK 1900 N/A 2/ 6 OREGON INLET 1900 81 81 180/ 15/ 17 1015.3 BUOY 44095 1900 79 N/A 3/ 6 20E OREGON INLET 1800 180/ 8/ 10 N/A HATTERAS CG 1900 83 82 190/ 6/ 11 1016.5 DIAMOND BUOY 1900 VRB 17/ 21 1016.0 3/ 9 2/ 9 CAPE LOOKOUT 1900 81 180/ 11/ 12 1016.7 BEAUFORT LAB 1900 81 81 190/ 10/ 13 1016.3 30 SE NEW RIVER 1900 80 82 200/ 12/ 14 1017.0 3/ 7 2/ 7 5 SE WRIGHTSVILL 1900 78 82 170/ 10/ 12 N/A BUOY 41002 1810 82 82 230/ 17/ 19 1020.1 4/ 5 2/ 8 BUOY 41004 1900 81 84 180/ 4/ 6 1017.2 3/ 6 3/ 6 $$

USA.gov is the U.S. government's official web portal to all federal, state and local government web resources and services.